West Plains, MO

7:27 PM CDT on October 21, 2017 (GMT -0500)
West Plains Municipal

Weather History for KUNO - February, 2014

Change the Weather History Date:

Monday, February 24, 2014

  Actual Average Record
Temperature  
Mean Temperature 33 °F 40 °F  
Max Temperature 45 °F 52 °F 82 °F (1996)
Min Temperature 20 °F 29 °F 10 °F (1964)
Degree Days  
Heating Degree Days 32 25  
Month to date heating degree days 799 665  
Since 1 July heating degree days 3659 3369  
Cooling Degree Days 0 0  
Month to date cooling degree days 0 0  
Year to date cooling degree days 0 0  
Moisture  
Dew Point 10 °F    
Average Humidity 44    
Maximum Humidity 68    
Minimum Humidity 20    
Precipitation  
Precipitation 0.00 in 0.10 in 1.77 in (2011)
Month to date precipitation 0.25 2.43  
Year to date precipitation 1.85 5.15  
Sea Level Pressure  
Sea Level Pressure 30.25 in    
Wind  
Wind Speed 7 mph (East)    
Max Wind Speed 15 mph    
Max Gust Speed 20 mph    
Visibility 10 miles    
Events      
T = Trace of Precipitation, MM = Missing Value Source: NWS Daily Summary

Daily Weather History Graph

Daily Weather History Graph

Search for Another Location

Airport or City:

Trip Planner

Search our weather history database for the weather conditions in past years. The results will help you decide how hot, cold, wet, or windy it might be!

Date:

Astronomy

Feb. 24, 2014 Rise Set
Actual Time 6:45 AM CST 5:57 PM CST
Civil Twilight 6:18 AM CST 6:23 PM CST
Nautical Twilight 5:48 AM CST 6:53 PM CST
Astronomical Twilight 5:18 AM CST 7:23 PM CST
Moon 2:39 AM CST (2/24) 1:02 PM CST (2/24)
Length of Visible Light 12h 04m
Length of Day
11h 12m
Waning Crescent, 28% of the Moon is Illuminated
Feb 24
Waning Crescent
Mar 1
New
Mar 8
First Quarter
Mar 16
Full
Mar 23
Last Quarter

Hourly Weather History & Observations

Time (CST) Temp. Windchill Dew Point Humidity Pressure Visibility Wind Dir Wind Speed Gust Speed Precip Events Conditions
12:53 AM 27.0 °F 19.5 °F 12.9 °F 56% 30.28 in 10.0 mi NE 6.9 mph - N/A   Clear
1:53 AM 25.0 °F 17.1 °F 12.0 °F 58% 30.30 in 10.0 mi NE 6.9 mph - N/A   Clear
2:53 AM 25.0 °F 16.3 °F 12.0 °F 58% 30.27 in 10.0 mi NE 8.1 mph - N/A   Clear
3:53 AM 23.0 °F - - N/A% 30.28 in - North - - N/A   Unknown
4:53 AM - - - N/A% 30.26 in - North - - N/A   Unknown
5:53 AM 21.0 °F - 12.0 °F 68% 30.33 in - North - - N/A   Unknown
6:53 AM 21.9 °F 12.5 °F 12.9 °F 68% 30.31 in 10.0 mi ENE 8.1 mph - N/A   Unknown
7:53 AM 25.0 °F 14.8 °F 12.0 °F 58% 30.33 in 10.0 mi ENE 10.4 mph - N/A   Clear
8:53 AM 28.9 °F 18.6 °F 8.1 °F 41% 30.32 in 10.0 mi ENE 12.7 mph - N/A   Clear
9:53 AM 33.1 °F 25.5 °F 6.1 °F 32% 30.35 in 10.0 mi NE 9.2 mph - N/A   Clear
10:53 AM 35.1 °F 31.0 °F 5.0 °F 28% 30.36 in 10.0 mi ENE 4.6 mph - N/A   Clear
11:53 AM 37.9 °F 31.5 °F 3.9 °F 24% 30.33 in 10.0 mi East 9.2 mph - N/A   Clear
12:53 PM 41.0 °F - 5.0 °F 23% 30.28 in 10.0 mi Calm Calm - N/A   Clear
1:53 PM 43.0 °F 38.8 °F 5.0 °F 21% 30.23 in 10.0 mi East 6.9 mph - N/A   Clear
2:53 PM 44.1 °F 39.0 °F 6.1 °F 21% 30.21 in 10.0 mi ESE 9.2 mph - N/A   Clear
3:53 PM 44.1 °F 39.0 °F 7.0 °F 22% 30.18 in 10.0 mi ESE 9.2 mph - N/A   Clear
4:53 PM 43.0 °F 38.2 °F 9.0 °F 25% 30.15 in 10.0 mi SSE 8.1 mph - N/A   Overcast
5:53 PM 42.1 °F 38.4 °F 10.0 °F 27% 30.18 in 10.0 mi South 5.8 mph - N/A   Overcast
6:53 PM 41.0 °F 36.4 °F 12.0 °F 31% 30.15 in 10.0 mi SE 6.9 mph - N/A   Overcast
7:53 PM 39.9 °F 33.9 °F 10.9 °F 31% 30.16 in 10.0 mi SE 9.2 mph - N/A   Overcast
8:53 PM 37.9 °F 31.5 °F 10.0 °F 32% 30.17 in 10.0 mi ESE 9.2 mph - N/A   Overcast
9:53 PM 37.0 °F 33.3 °F 10.0 °F 33% 30.19 in 10.0 mi ESE 4.6 mph - N/A   Overcast
10:53 PM 37.0 °F 33.3 °F 12.0 °F 36% 30.19 in 10.0 mi ESE 4.6 mph - N/A   Overcast
11:53 PM 36.0 °F 33.3 °F 16.0 °F 44% 30.19 in 10.0 mi East 3.5 mph - N/A   Overcast